Location: Azul
(36.7830°S, 59.8500°W)
Time: 09:37:13
(UTC-03:00)

LilacSat-2 - Visible Passes

Search period start: 22 October 2021 00:00
Search period end: 01 November 2021 00:00
Orbit: 510 x 534 km, 97.5° (Epoch: 22 October)

Date Brightness Start Highest point End Pass type
(mag) Time Alt. Az. Time Alt. Az. Time Alt. Az.
22 Oct ? 05:32:09 10° NE 05:35:37 33° ESE 05:39:09 10° S visible
23 Oct ? 05:19:44 10° NE 05:22:49 24° ESE 05:25:57 10° SSE visible
23 Oct ? 20:03:58 10° SW 20:05:16 11° WSW 20:06:35 10° W visible
24 Oct ? 05:07:32 10° ENE 05:10:03 17° ESE 05:12:36 10° SSE visible
24 Oct ? 19:50:05 10° SSW 19:52:32 16° WSW 19:54:57 10° WNW visible
25 Oct ? 04:55:46 10° E 04:57:18 12° ESE 04:58:50 10° SE visible
30 Oct ? 05:23:28 10° NE 05:26:43 26° ESE 05:30:02 10° SSE visible
30 Oct ? 20:08:44 10° WSW 20:09:10 10° WSW 20:09:34 10° WSW visible
31 Oct ? 05:11:11 10° ENE 05:13:56 19° ESE 05:16:43 10° SSE visible
31 Oct ? 19:54:14 10° SSW 19:56:24 14° WSW 19:58:32 10° W visible
